Regional Weather Roundup
Issued by NWS

Home | Current Version | Previous Version | Graphics & Text | Print | Product List | Glossary On
Versions: 1 2 3 4 5 6 7 8 9 10 11 12 13 14 15 16 17 18 19 20 21 22 23 24 25 26 27 28 29 30 31 32 33 34 35 36 37 38 39 40 41 42 43 44 45 46 47 48 49 50
000
ASUS43 KIND 011559
RWRIN

WEATHER ROUNDUP FOR INDIANA
NATIONAL WEATHER SERVICE INDIANAPOLIS IN
1100 AM EST SUN FEB 01 2015

NOTE: "FAIR" INDICATES FEW OR NO CLOUDS BELOW 12,000 FEET WITH NO
SIGNIFICANT WEATHER AND/OR OBSTRUCTIONS TO VISIBILITY.

* - STATION DOES NOT REPORT WEATHER SUCH AS PRECIPITATION OR FOG.

+ - STATION NOT QUALITY CONTROLLED BY THE NATIONAL WEATHER SERVICE.
    USE DATA WITH CAUTION...ESPECIALLY DEWPOINT AND RELATIVE
    HUMIDITY OBSERVATIONS.

INZ001>003-010>013-019-020-011700-
NORTHWEST INDIANA

CITY           SKY/WX    TMP DP  RH WIND       PRES   REMARKS
GARY /AIRPORT/ LGT SNOW  34  32  93 CALM      29.87F VSB 1
VALPARAISO     NOT AVBL

$$

LMZ046-743>745-011700-
SOUTHERN LAKE MICHIGAN

STATION/POSITION TIME  TEMP WIND        PRES
                       AIR  DIR/SP/G
                 (UTC) (F)  (DEG/KT/KT) (MB)
MICHIGAN CITY    1500   30   60/ 10/ 13   N/A

$$

INZ004-005-014>016-021>024-011700-
NORTH CENTRAL INDIANA

CITY           SKY/WX    TMP DP  RH WIND       PRES   REMARKS
GOSHEN         SNOW      31  30  96 E14       29.92F VSB 1/4 WCI  21
PERU/GRISSOM   LGT SNOW  32  32 100 SE12      29.86F FOG     WCI  23
SOUTH BEND     SNOW      30  28  92 E9        29.92F VSB 1/2 WCI  22

$$

INZ006>009-017-018-025>027-011700-
NORTHEAST INDIANA

CITY           SKY/WX    TMP DP  RH WIND       PRES   REMARKS
ANGOLA *+      CLOUDY    25  25 100 E15       29.96F VSB 3/4 WCI  12
FORT WAYNE     LGT SNOW  34  32  92 E14       29.92F FOG     WCI  25

$$

INZ028-029-035-036-043>045-051>053-011700-
WEST CENTRAL INDIANA

CITY           SKY/WX    TMP DP  RH WIND       PRES   REMARKS
GREENCASTLE +  LGT SNOW  32  28  86 SE7       29.84F WCI  26
LAFAYETTE      HVY SNOW  31  31 100 E8        29.83F VSB 1/4 WCI  23
TERRE HAUTE    LGT SNOW  33  31  92 SE8       29.82F FOG     WCI  26

$$

INZ030>032-037>040-046>048-054>057-064-065-011700-
CENTRAL INDIANA

CITY           SKY/WX    TMP DP  RH WIND       PRES   REMARKS
COLUMBUS       CLOUDY    36  27  69 E6        29.87F
INDIANAPOLIS   LGT SNOW  30  30 100 SE13      29.83F FOG     WCI  20
-EAGLE CREEK   LGT SNOW  32  31  96 SE9       29.84F VSB 3/4 WCI  24
KOKOMO *+      CLOUDY    34  30  86 SE9       29.87F WCI  26
MT COMFORT *+  CLOUDY    36  23  60 S9G17     29.87F
SHELBYVILLE    CLOUDY    36  29  75 SE7       29.87F

$$

INZ033-034-041-042-049-050-058-059-011700-
EAST CENTRAL INDIANA

CITY           SKY/WX    TMP DP  RH WIND       PRES   REMARKS
MUNCIE         CLOUDY    36  30  79 S8        29.89F

$$

INZ060-061-067>069-081>083-085>088-011700-
SOUTHWEST INDIANA

CITY           SKY/WX    TMP DP  RH WIND       PRES   REMARKS
EVANSVILLE     RAIN      42  38  85 S9        29.79F FOG
HUNTINGBURG *+ CLOUDY    41  36  81 S14G22    29.79F

$$

INZ062-063-066-070>080-084-089>092-011700-
SOUTH CENTRAL AND SOUTHEAST INDIANA

CITY           SKY/WX    TMP DP  RH WIND       PRES   REMARKS
BLOOMINGTON    RAIN      34  30  85 SE9       29.81F FOG     WCI  27
SEYMOUR +      LGT RAIN  39  28  65 SE10      29.86F

$$



USA.gov is the U.S. government's official web portal to all federal, state and local government web resources and services.